Home > Weather > Ghazni > Past weeks

Flag for Afghanistan Past Weather in Ghazni, Afghanistan — Yesterday and Last 2 Weeks

Now
88 °F

Passing clouds.


Feels Like: 93 °F
Forecast: 50 / 83 °F
Wind: 12 mph from Northwest

Location: Peshawar Airport

Current Time: Aug 24, 2016 at 10:44:46 PM

Latest Report: Aug 24, 2016 at 9:30 PM


Visibility: 2 mi

Pressure: 29.65 "Hg (23.20 "Hg at 2184m altitude)

Humidity: 55%

Dew Point: 70 °F

Location of GhazniLocation

Past Weather in Ghazni — Graph

°F

Ghazni Temperature Yesterday

Maximum temperature yesterday: 100 °F (at 2:30 PM)
Minimum temperature yesterday: 79 °F (at 5:30 AM)
Average temperature yesterday: 90 °F

High & Low Weather Summary for the Past Weeks

 TemperatureHumidityPressure
High100 °F (Aug 13, 3:30 PM)94% (Aug 17, 2:30 AM)29.74 "Hg (Aug 17, 2:30 AM)
Low72 °F (Aug 17, 2:30 AM)37% (Aug 23, 2:30 PM)29.50 "Hg (Aug 16, 8:30 AM)
Average87 °F58%29.60 "Hg
* Reported Aug 9 9:30 PM — Aug 24 9:30 PM, Ghazni, Weather by CustomWeather, © 2016

Note: Actual official high and low records may vary slightly from our data, if they occured in-between our weather recording intervals... More about our weather records

Advertising

Ghazni Weather History for the Previous 24 Hours

Scroll right to see more
 ConditionsComfort  
Time TempWeatherWind HumidityBarometerVisibility
9:30 PM
Wed, Aug 24
88 °FPassing clouds.12 mph55%29.65 "Hg2 mi
8:30 PM90 °FHaze.7 mph52%29.65 "Hg2 mi
7:30 PM90 °FHaze.7 mph52%29.62 "Hg2 mi
6:30 PM93 °FPassing clouds.9 mph47%29.56 "Hg2 mi
6:00 PM97 °FHaze.12 mph39%29.59 "Hg2 mi
5:30 PM97 °FHaze.12 mph39%29.59 "Hg2 mi
5:00 PM99 °FHaze.12 mph37%29.56 "Hg2 mi
4:30 PM99 °FHaze.12 mph37%29.56 "Hg2 mi
4:00 PM100 °FHaze.12 mph37%29.56 "Hg2 mi
3:30 PM100 °FHaze.12 mph37%29.56 "Hg2 mi
3:00 PM99 °FHaze.12 mph39%29.59 "Hg2 mi
2:30 PM99 °FHaze.12 mph39%29.59 "Hg2 mi
2:00 PM99 °FHaze.12 mph39%29.62 "Hg2 mi
1:30 PM99 °FExtremely hot.12 mph39%29.62 "HgN/A
1:00 PM97 °FHaze.12 mph44%29.65 "Hg2 mi
12:30 PM97 °FHaze.12 mph44%29.65 "Hg2 mi
12:00 PM95 °FHaze.9 mph50%29.68 "Hg2 mi
11:30 AM95 °FHaze.9 mph50%29.68 "Hg2 mi
11:00 AM91 °FHaze.7 mph52%29.68 "Hg2 mi
10:30 AM91 °FHaze.7 mph52%29.68 "Hg2 mi
10:00 AM90 °FHaze.7 mph55%29.68 "Hg2 mi
9:30 AM90 °FHaze.7 mph55%29.68 "Hg2 mi
9:00 AM86 °FHaze.7 mph62%29.68 "Hg2 mi
8:30 AM86 °FHaze.7 mph62%29.68 "Hg2 mi
8:00 AM82 °FHaze.7 mph66%29.68 "Hg2 mi
7:30 AM82 °FHaze.7 mph66%29.68 "Hg2 mi
7:00 AM81 °FHaze.7 mph66%29.68 "Hg2 mi
6:30 AM81 °FHaze.7 mph66%29.68 "Hg2 mi
6:00 AM79 °FHaze.7 mph70%29.65 "Hg2 mi
5:30 AM79 °FHaze.7 mph70%29.65 "Hg2 mi
5:00 AM81 °FHaze.7 mph62%29.59 "Hg2 mi
4:30 AM81 °FHaze.7 mph62%29.59 "Hg2 mi
4:00 AM81 °FHaze.7 mph62%29.59 "Hg2 mi
3:30 AM81 °FHaze.7 mph62%29.59 "Hg2 mi
3:00 AM81 °FHaze.7 mph58%29.59 "Hg2 mi
2:30 AM81 °FHaze.7 mph58%29.59 "Hg2 mi
1:30 AM82 °FHaze.7 mph58%29.59 "Hg2 mi
12:30 AM84 °FHaze.7 mph51%29.59 "Hg2 mi
11:30 PM
Tue, Aug 23
79 °FPassing clouds.7 mph65%29.59 "Hg2 mi
10:30 PM86 °FPassing clouds.7 mph52%29.62 "Hg2 mi
Weather by CustomWeather, © 2016

See weather overviewHow to use our weather pages